CZ-6A DEB, 60659

Orbit data source: Space-Track

CZ-6A DEB, 60659 is space debris in LEO originally from a launch on Tue, 06 Aug 2024 UTC launched from the Taiyaun Space Center, China (TSC). Debris objects in space refer to the collection of defunct objects orbiting the Earth. Examples of debris include non-operational satellites, rocket bodies, and fragments generated from explosions, collisions, or faulty payload assembly.

Loading next visibility...
Identifier
60659, 2024-140BL
Orbit
LEO
Country
Flag of CNCN / PRC
Related business
Manufacturer
SAST
Mission
Spacecraft
Bus & Motor
Unknown
Mass
Unknown
Launch date (UTC)
2024-08-06 (2 years ago)
Launch vehicle
Unknown
Launch site
Taiyaun Space Center, China (TSC)
Object type
Payload
Rocket body
Debris
Shape & HBR
Unknown shape, 0.2 m
Radar Cross Section
Medium (>0.1 m² and <1 m²)

Expand to show TLE details & history
Last TLE update: 16 hours ago

TLE from 16 hours ago
0 CZ-6A DEB
1 60659U 24140BL  26171.30317911  .00001126  00000-0  50488-3 0  9997
2 60659  89.0062 274.6344 0044287 165.3096 194.9394 14.21355087 96604
Epoch: 2026-06-20T07:16Z
TLE epoch observation values (Epoch: 2026-06-20T07:16:34.675Z)
Latitude
0.00003°
Longitude
-103.02982°
Altitude
854.649 km
Speed
7.409 km/s
True Right ascension
18h 18m 32s
True Declination
0° 00' 00"
Sunlit
Object was in full shadow at epoch
Visualization orbit readout
Latitude
Unknown
Longitude
Unknown
Altitude
Unknown
Speed
Unknown
Apparent Right ascension
Unknown
Apparent Declination
Unknown
Sunlit
N/A
Visualization observer readout
Local Sidereal Time
10:18:59
Azimuth
Unknown
Elevation
Unknown
Doppler factor
Unknown
Orbital elements
Apogee altitude
849.591 km
Perigee altitude
785.854 km
Semi-major axis
7,195.86 km
Eccentricity
0.00443
Inclination
89.0062°
RAAN
274.6344°
Arg. of periapsis
165.3096°
True anomaly
194.80927°
Mean anomaly
194.9394°
Eccentric anomaly
194.87426°
Mean motion
3.55565 °/min
Orbital period
101.25 mins
BSTAR
0.00050488
Loading maneuver chart data...
Computing Atmospheric mass density...
Loading historical data...
Loading historical data...
Loading historical data...
Loading historical data...
Loading historical data...
Loading historical data...
Loading historical data...

Documentation

Showing up to 5 results
|